[[{"header":{"parameterUnit":"m.s-1","parameterCategory":1,"la1":30.2991,"la2":30.254,"lo1":-89.0895,"lo2":-89.0444,"dy":0.0017,"dx":0.0017,"nx":28,"ny":28,"refTime":"2024-05-31T09:00:00:Z","depth":0,"parameterNumber":2,"parameterNumberName":"U-component_of_WINDS"},"data":[0,0,0,0,0,0,0,0,0,0,0,0,0,0,0,0,0,0,0,0,0,0,0,0,0,0,0,0,0,0,0,0,0,0,0,0,0,0,0,0,0,0,0,0,0,0,0,0,0,0,0,0,0,0,0,0,0,0,-6.1451,-6.1451,0,-6.1455,-6.1455,-6.1455,-6.1342,-6.1339,-6.1336,-6.1333,-6.1335,-6.1338,-6.1341,0,0,0,0,0,0,0,0,0,0,0,0,0,-6.1345,-6.1348,-6.1451,-6.1451,-6.1451,-6.1455,-6.1455,-6.1455,-6.1343,-6.1339,-6.1336,-6.1332,-6.1334,-6.1338,-6.1341,0,0,0,0,0,0,0,0,0,0,0,0,0,-6.1374,-6.1348,-6.1451,-6.1396,-6.1391,-6.1455,-6.1455,-6.1455,-6.1344,-6.1339,-6.1335,-6.133,-6.1333,-6.1337,-6.1341,-6.1458,0,0,-6.1354,-6.1356,0,0,0,0,0,0,0,0,-6.1373,-6.1378,-6.1404,-6.14,-6.1394,-6.1393,-6.1418,-6.1456,-6.1345,-6.1361,-6.1333,-6.1328,-6.1358,-6.136,-6.137,-6.1458,-6.1458,-6.1355,-6.1357,-6.1359,-6.136,0,0,0,0,0,0,0,-6.1371,-6.1377,-6.1452,-6.1404,-6.1398,-6.137,-6.1369,-6.1425,-6.1385,-6.136,-6.1351,-6.1354,-6.1355,-6.1367,-6.137,-6.1458,-6.1355,-6.1359,-6.1361,-6.1363,-6.1641,-6.1646,0,0,0,0,0,0,-6.1377,-6.1376,-6.1452,-6.1452,-6.1372,-6.1376,-6.1375,-6.1398,-6.1384,-6.1377,-6.1357,-6.1348,-6.1362,-6.1365,-6.1369,-6.1504,-6.1359,-6.1363,-6.1366,-6.1636,-6.1642,-6.1647,0,0,0,0,0,0,-6.1375,-6.1384,-6.1452,-6.1412,-6.1419,-6.1382,-6.141,-6.1401,-6.1412,-6.1382,-6.1374,-6.1377,-6.1358,-6.1363,-6.1437,-6.1502,-6.1365,-6.1369,-6.1631,-6.1638,-6.1645,-6.1775,0,0,0,0,0,0,-6.1372,-6.1384,-6.1428,-6.1414,-6.1421,-6.152,-6.1414,-6.1404,-6.142,-6.1409,-6.1399,-6.1393,-6.1355,-6.1431,-6.1441,-6.1506,-6.1372,-6.1624,-6.1634,-6.1642,-6.1764,-6.1786,-6.1804,0,0,0,0,0,-6.1369,-6.1464,-6.1431,-6.1441,-6.1476,-6.1524,-6.1528,-6.1483,-6.1426,-6.147,-6.1451,-6.1393,-6.1494,-6.144,-6.145,-6.1517,-6.162,-6.1631,-6.1642,-6.1756,-6.1781,-6.1803,0,0,0,0,0,0,-6.1486,-6.1461,-6.1424,-6.1518,-6.1524,-6.1505,-6.1558,-6.1512,-6.1534,-6.1521,-6.1465,-6.1463,-6.1546,-6.1539,-6.1478,-6.1629,-6.1547,-6.156,-6.163,-6.1654,-6.1674,-6.1673,-6.1376,0,0,0,0,0,-6.1523,-6.1565,-6.1541,-6.1626,-6.1631,-6.1595,-6.1614,-6.158,-6.1583,-6.1585,-6.1571,-6.1576,-6.1609,-6.1631,-6.166,-6.1764,-6.176,-6.1815,-6.1835,-6.1851,-6.1863,-6.1917,-6.1941,-6.1683,-6.1683,-6.1683,0,0,-6.1599,-6.1591,-6.1621,-6.165,-6.165,-6.1694,-6.1598,-6.1648,-6.168,-6.1592,-6.166,-6.1651,-6.1653,-6.1742,-6.1781,-6.1739,-6.1934,-6.1865,-6.1878,-6.1881,-6.193,-6.1955,-6.1977,-6.169,-6.1689,-6.1688,0,0,-6.176,-6.1759,-6.1829,-6.1833,-6.1835,-6.1811,-6.1828,-6.1817,-6.1807,-6.1875,-6.181,-6.1848,-6.1906,-6.191,-6.1919,-6.2085,-6.2033,-6.2096,-6.2198,-6.2251,-6.2272,-6.2289,-6.2347,-6.2369,-6.2108,-6.2109,-6.2109,0,-6.1854,-6.1918,-6.1871,-6.1927,-6.1941,-6.1866,-6.1936,-6.1941,-6.1953,-6.1965,-6.1918,-6.199,-6.1986,-6.2075,-6.2116,-6.2127,-6.2144,-6.2096,-6.2273,-6.229,-6.2306,-6.236,-6.2382,-6.2116,-6.2115,-6.2115,-6.2114,0,-6.2033,-6.2079,-6.2136,-6.2151,-6.2172,-6.2235,-6.2197,-6.2224,-6.2189,-6.2169,-6.224,-6.2233,-6.2259,-6.2278,-6.2243,-6.2363,-6.2336,-6.2283,-6.2198,-6.2339,-6.2389,-6.241,-6.2127,-6.2124,-6.2122,-6.212,0,0,-6.2265,-6.2255,-6.2276,-6.2282,-6.2281,-6.2315,-6.2375,-6.2402,-6.2425,-6.2437,-6.2485,-6.2537,-6.2488,-6.2499,-6.2464,-6.2512,-6.2643,-6.2452,-6.2451,-6.2486,-6.2773,-6.2812,-6.2837,-6.2609,-6.2613,-6.2616,-6.2772,0,-6.242,-6.2522,-6.2482,-6.2587,-6.2629,-6.2559,-6.2611,-6.2616,-6.26,-6.2633,-6.2615,-6.2653,-6.2585,-6.2591,-6.2635,-6.2618,-6.2699,-6.2606,-6.2652,-6.2654,-6.2652,-6.2863,-6.2904,-6.3052,-6.2792,-6.2795,-6.2797,0,-6.2614,-6.2635,-6.2744,-6.2736,-6.2752,-6.28,-6.2821,-6.2854,-6.2859,-6.2844,-6.2858,-6.2814,-6.2871,-6.279,-6.2869,-6.2807,-6.2824,-6.2818,-6.2823,-6.2823,-6.2733,-6.2868,-6.3098,-6.312,-6.2828,-6.2826,-6.2823,0,-6.277,-6.2826,-6.2898,-6.2906,-6.2899,-6.2934,-6.2933,-6.2933,-6.2952,-6.2971,-6.2982,-6.3008,-6.3022,-6.3042,-6.3006,-6.2951,-6.309,-6.3006,-6.3078,-6.3079,-6.3108,-6.3106,-6.3342,-6.3123,-6.3123,-6.3123,-6.3122,0,-6.2946,-6.3015,-6.2968,-6.3013,-6.3089,-6.3043,-6.3119,-6.311,-6.3111,-6.3152,-6.3094,-6.3134,-6.3085,-6.312,-6.3092,-6.3161,-6.3168,-6.3157,-6.3148,-6.3161,-6.3162,-6.3169,-6.3157,-6.3128,-6.3127,-6.3126,-6.3125,0,-6.3132,-6.3103,-6.3178,-6.3166,-6.3165,-6.3222,-6.3211,-6.3252,-6.3233,-6.3286,-6.3296,-6.3266,-6.3305,-6.3272,-6.3308,-6.329,-6.3381,-6.3359,-6.338,-6.3373,-6.3446,-6.3439,-6.3693,-6.3724,-6.3488,-6.349,-6.3492,0,-6.3244,-6.3296,-6.3291,-6.3315,-6.3318,-6.3358,-6.3377,-6.3335,-6.3358,-6.3368,-6.3407,-6.3441,-6.3465,-6.353,-6.3512,-6.354,-6.3516,-6.3604,-6.352,-6.3531,-6.3516,-6.3512,-6.3517,-6.362,-6.3623,-6.3625,-6.3627,0,-6.3447,-6.3431,-6.3462,-6.3489,-6.3514,-6.3533,-6.3547,-6.357,-6.3527,-6.3556,-6.3595,-6.3614,-6.3653,-6.3687,-6.371,-6.3707,-6.366,-6.3654,-6.3672,-6.3684,-6.3693,-6.3688,-6.3424,-6.3647,-6.3645,-6.3644,-6.3643,-6.3642,-6.3598,-6.3641,-6.3645,-6.3682,-6.3689,-6.3704,-6.3741,-6.3728,-6.3761,-6.3789,-6.3763,-6.381,-6.3814,-6.384,-6.3844,-6.388,-6.3843,-6.387,-6.3876,-6.3883,-6.3893,-6.369,-6.3884,-6.3884,-6.3883,-6.3882,-6.3882,0,-6.3797,-6.3796,-6.3831,-6.3853,-6.3882,-6.3838,-6.3851,-6.3878,-6.3921,-6.3929,-6.3956,-6.4001,-6.4035,-6.402,-6.4049,-6.4081,-6.406,-6.409,-6.4085,-6.4086,-6.3924,-6.3905,-6.4106,-6.4106,-6.4106,-6.4106,-6.4106,-6.4106,-6.3903,-6.3973,-6.3958,-6.4032,-6.403,-6.4077,-6.4089,-6.4103,-6.4109,-6.4163,-6.4191,-6.4182,-6.4181,-6.421,-6.4239,-6.4233,-6.4246,-6.4283,-6.427,-6.4119,-6.4097,-6.4076,-6.4057,-6.4287,-6.4287,-6.4428,-6.4429,-6.443]},{"header":{"parameterUnit":"m.s-1","parameterCategory":1,"la1":30.2991,"la2":30.254,"lo1":-89.0895,"lo2":-89.0444,"dy":0.0017,"dx":0.0017,"nx":28,"ny":28,"refTime":"2024-05-31T09:00:00:Z","depth":0,"parameterNumber":3,"parameterNumberName":"V-component_of_WINDS"},"data":[0,0,0,0,0,0,0,0,0,0,0,0,0,0,0,0,0,0,0,0,0,0,0,0,0,0,0,0,0,0,0,0,0,0,0,0,0,0,0,0,0,0,0,0,0,0,0,0,0,0,0,0,0,0,0,0,0,0,2.4608,2.4608,0,2.4591,2.4591,2.459,2.4578,2.4578,2.4578,2.4578,2.4557,2.4557,2.4556,0,0,0,0,0,0,0,0,0,0,0,0,0,2.4629,2.4629,2.4608,2.4608,2.4608,2.4591,2.4591,2.459,2.4578,2.4578,2.4578,2.4578,2.4557,2.4557,2.4556,0,0,0,0,0,0,0,0,0,0,0,0,0,2.4617,2.4629,2.4608,2.46,2.4599,2.4591,2.4591,2.459,2.4578,2.4578,2.4578,2.4578,2.4557,2.4557,2.4556,2.4555,0,0,2.4554,2.4554,0,0,0,0,0,0,0,0,2.4618,2.4616,2.4601,2.46,2.4599,2.4587,2.459,2.4578,2.4578,2.4586,2.4578,2.4578,2.4567,2.4565,2.4562,2.4554,2.4553,2.4554,2.4553,2.4553,2.4553,0,0,0,0,0,0,0,2.4618,2.4617,2.4601,2.4601,2.46,2.4596,2.4594,2.4588,2.4577,2.4585,2.4584,2.4582,2.4566,2.4563,2.4562,2.4552,2.4554,2.4553,2.4553,2.4553,2.4543,2.4543,0,0,0,0,0,0,2.4621,2.4618,2.4602,2.4601,2.4608,2.4596,2.4594,2.4591,2.4577,2.4575,2.4583,2.4582,2.4564,2.4563,2.4561,2.4559,2.4553,2.4552,2.4552,2.4542,2.4543,2.4543,0,0,0,0,0,0,2.4621,2.462,2.4603,2.4609,2.4607,2.4596,2.4592,2.459,2.4587,2.4575,2.4573,2.4581,2.4564,2.4562,2.4557,2.4558,2.4552,2.4552,2.4542,2.4542,2.4543,2.4555,0,0,0,0,0,0,2.4622,2.462,2.462,2.4609,2.4606,2.4599,2.4593,2.459,2.4586,2.4585,2.4574,2.4572,2.4564,2.4558,2.4556,2.4557,2.4551,2.4542,2.4542,2.4543,2.4554,2.4555,2.4556,0,0,0,0,0,2.4623,2.4623,2.462,2.4618,2.4606,2.4599,2.4598,2.4589,2.4587,2.4586,2.4579,2.4572,2.4558,2.4557,2.4555,2.4556,2.4542,2.4542,2.4543,2.4554,2.4555,2.4556,0,0,0,0,0,0,2.4633,2.4621,2.4618,2.4614,2.4608,2.4597,2.4596,2.4591,2.4585,2.4584,2.4573,2.4571,2.4567,2.4561,2.456,2.4554,2.4549,2.4549,2.4559,2.456,2.4561,2.4562,2.455,0,0,0,0,0,2.4635,2.4631,2.4621,2.4619,2.4616,2.4607,2.4604,2.4598,2.4591,2.4588,2.458,2.4572,2.4567,2.4563,2.4557,2.4553,2.4551,2.4553,2.4554,2.4555,2.4555,2.4554,2.4555,2.4544,2.4544,2.4544,0,0,2.4638,2.4632,2.463,2.4621,2.4616,2.4612,2.4605,2.4601,2.4598,2.4587,2.4582,2.4576,2.4567,2.4563,2.4561,2.4558,2.4558,2.4555,2.4556,2.4556,2.4554,2.4555,2.4556,2.4544,2.4544,2.4544,0,0,2.4643,2.4638,2.4636,2.4631,2.4623,2.4617,2.4617,2.4607,2.4603,2.4598,2.459,2.4586,2.4576,2.457,2.4566,2.457,2.4564,2.4568,2.4574,2.4573,2.4574,2.4575,2.4577,2.4577,2.4568,2.4568,2.4568,0,2.4649,2.4643,2.4636,2.4633,2.4629,2.462,2.4619,2.4614,2.4604,2.4601,2.4599,2.4587,2.458,2.4575,2.4576,2.4573,2.4572,2.457,2.4574,2.4575,2.4576,2.4577,2.4578,2.4569,2.4569,2.4569,2.4569,0,2.465,2.4647,2.4646,2.4639,2.4635,2.4632,2.4624,2.4621,2.4616,2.461,2.4606,2.4597,2.459,2.4588,2.4583,2.4583,2.4581,2.4577,2.4571,2.4578,2.4579,2.458,2.457,2.457,2.457,2.4569,0,0,2.466,2.4649,2.4649,2.4646,2.4637,2.4634,2.4631,2.4625,2.4623,2.4617,2.4614,2.4607,2.4603,2.4598,2.4592,2.4591,2.4595,2.4586,2.4586,2.4588,2.4596,2.46,2.4601,2.4591,2.4591,2.4591,2.4597,0,2.4664,2.466,2.4653,2.4651,2.4648,2.464,2.4637,2.4632,2.4626,2.4622,2.4616,2.4611,2.4606,2.4603,2.4602,2.4595,2.4597,2.4594,2.4589,2.4589,2.4592,2.4601,2.4605,2.461,2.4597,2.4597,2.4597,0,2.4668,2.4664,2.4661,2.4654,2.4652,2.465,2.4644,2.4641,2.4634,2.4631,2.4626,2.462,2.4616,2.4612,2.4607,2.4606,2.4603,2.4599,2.4599,2.4598,2.4593,2.4601,2.4612,2.4613,2.4598,2.4598,2.4598,0,2.4676,2.467,2.4667,2.4665,2.4656,2.4655,2.4651,2.4644,2.4641,2.4636,2.4634,2.4628,2.4625,2.462,2.4613,2.461,2.4609,2.4604,2.4606,2.4606,2.4606,2.4606,2.4617,2.4604,2.4604,2.4604,2.4604,0,2.4682,2.468,2.4671,2.467,2.4669,2.4661,2.466,2.4655,2.4649,2.4647,2.4639,2.4637,2.4627,2.4623,2.4617,2.4615,2.4613,2.461,2.4608,2.4611,2.4611,2.4609,2.4608,2.4604,2.4604,2.4604,2.4604,0,2.469,2.4684,2.4682,2.4674,2.4672,2.4671,2.4664,2.4663,2.4658,2.4655,2.4653,2.4645,2.464,2.4633,2.4625,2.4621,2.462,2.4617,2.4623,2.4622,2.4625,2.4625,2.4635,2.4636,2.4622,2.4622,2.4622,0,2.4694,2.4693,2.4686,2.4684,2.4681,2.4678,2.4676,2.4668,2.4666,2.4659,2.4658,2.4654,2.4649,2.4643,2.4636,2.463,2.4628,2.4631,2.4627,2.463,2.4628,2.4629,2.4629,2.4632,2.4633,2.4633,2.4633,0,2.4702,2.4699,2.4696,2.4692,2.469,2.4686,2.4682,2.4681,2.4672,2.467,2.4666,2.4663,2.4657,2.4652,2.4646,2.4642,2.4636,2.4635,2.4635,2.4638,2.4641,2.464,2.4626,2.4634,2.4634,2.4634,2.4634,2.4634,2.4708,2.4708,2.4703,2.47,2.4696,2.4693,2.4692,2.4687,2.4684,2.4679,2.4674,2.4671,2.4665,2.4657,2.4653,2.465,2.4647,2.4647,2.4648,2.4648,2.4649,2.4642,2.4649,2.4649,2.4649,2.4649,2.4649,0,2.4716,2.4713,2.471,2.4706,2.4703,2.4699,2.4695,2.4693,2.4691,2.4686,2.4683,2.4679,2.4675,2.4668,2.4663,2.4662,2.466,2.4661,2.4661,2.4661,2.4652,2.4652,2.4664,2.4664,2.4664,2.4664,2.4664,2.4664,2.472,2.4719,2.4716,2.4713,2.471,2.4707,2.4705,2.4702,2.4698,2.4695,2.4692,2.4688,2.4682,2.4678,2.4674,2.4672,2.4671,2.4673,2.4671,2.4662,2.4661,2.466,2.466,2.4673,2.4673,2.468,2.468,2.468]}]]